Blattenbach Aussen Messungen

Zurück zum Überblick

Zeitpunkt Temperatur Temperatur Kabelsensor Luftfeuchte
23.01.2019 03:12:15 -5,7 C 1,2 C 78,0%
23.01.2019 03:05:15 -5,5 C 1,2 C 78,0%
23.01.2019 02:58:13 -5,4 C 1,2 C 78,0%
23.01.2019 02:51:14 -5,4 C 1,2 C 78,0%
23.01.2019 02:44:10 -5,3 C 1,2 C 79,0%
23.01.2019 02:37:13 -5,3 C 1,2 C 79,0%
23.01.2019 02:30:13 -5,3 C 1,3 C 79,0%
23.01.2019 02:23:13 -5,4 C 1,3 C 80,0%
23.01.2019 02:16:12 -5,4 C 1,3 C 79,0%
23.01.2019 02:09:14 -5,4 C 1,3 C 79,0%
23.01.2019 02:02:13 -5,4 C 1,3 C 78,0%
23.01.2019 01:55:13 -5,4 C 1,3 C 79,0%
23.01.2019 01:48:15 -5,4 C 1,5 C 78,0%
23.01.2019 01:41:15 -5,4 C 1,5 C 79,0%
23.01.2019 01:34:12 -5,2 C 1,5 C 78,0%
23.01.2019 01:27:14 -5,1 C 1,5 C 79,0%
23.01.2019 01:20:13 -5,1 C 1,5 C 78,0%
23.01.2019 01:13:15 -5,0 C 1,5 C 78,0%
23.01.2019 01:06:14 -5,0 C 1,6 C 78,0%
23.01.2019 00:59:12 -4,9 C 1,6 C 78,0%
23.01.2019 00:52:14 -5,0 C 1,6 C 78,0%
23.01.2019 00:45:13 -4,9 C 1,6 C 78,0%
23.01.2019 00:38:10 -5,1 C 1,6 C 78,0%
23.01.2019 00:31:12 -5,0 C 1,6 C 77,0%
23.01.2019 00:24:12 -5,1 C 1,7 C 77,0%
23.01.2019 00:17:08 -5,0 C 1,7 C 78,0%
23.01.2019 00:10:11 -5,1 C 1,7 C 78,0%
23.01.2019 00:03:13 -4,9 C 1,7 C 78,0%
22.01.2019 23:56:15 -4,8 C 1,7 C 78,0%
22.01.2019 23:49:14 -4,8 C 1,8 C 79,0%
22.01.2019 23:42:15 -4,8 C 1,8 C 79,0%
22.01.2019 23:35:12 -4,8 C 1,8 C 78,0%
22.01.2019 23:28:13 -4,8 C 1,8 C 78,0%
22.01.2019 23:21:13 -4,8 C 1,8 C 78,0%
22.01.2019 23:14:13 -4,7 C 1,9 C 78,0%
22.01.2019 23:07:14 -4,7 C 1,9 C 77,0%
22.01.2019 23:00:13 -4,6 C 1,9 C 77,0%
22.01.2019 22:53:14 -4,5 C 1,9 C 77,0%
22.01.2019 22:46:13 -4,6 C 2,0 C 76,0%
22.01.2019 22:39:11 -4,4 C 2,0 C 76,0%
22.01.2019 22:32:12 -4,4 C 2,0 C 75,0%
22.01.2019 22:25:12 -4,4 C 2,0 C 75,0%
22.01.2019 22:18:13 -4,3 C 2,1 C 75,0%
22.01.2019 22:11:12 -4,1 C 2,1 C 76,0%
22.01.2019 22:04:13 -4,0 C 2,1 C 76,0%
22.01.2019 21:57:11 -3,9 C 2,1 C 76,0%
22.01.2019 21:50:10 -3,8 C 2,1 C 74,0%
22.01.2019 21:43:11 -3,6 C 2,1 C 74,0%
22.01.2019 21:36:12 -3,5 C 2,2 C 75,0%
22.01.2019 21:29:11 -3,3 C 2,2 C 75,0%